DW8871 Weather Reports


Display with metric or nautical units.
time (UTC)temp
F
wind
direction
speed
MPH
gust
MPH
rain 1hr
in
rain 24hr
in
rain mn
in
humidity
%
barometer
mb
20260906093046 73 0 0.0 0.0 0.00 0.00 0.00 93 1014.2
20260906091536 73 0 0.0 0.0 0.00 0.00 0.00 93 1014.0
20260906090037 73 0 0.0 0.0 0.00 0.00 0.00 93 1014.1
20260906090018 74 286 0.0 0.0 0.00 0.00 0.00 93 1013.0
20260906084542 73 0 0.0 0.0 0.00 0.00 0.00 92 1014.1
20260906083038 74 0 0.0 0.0 0.00 0.00 0.00 92 1013.8
20260906081535 74 0 0.0 0.0 0.00 0.00 0.00 92 1013.8
20260906080044 74 0 0.0 1.0 0.00 0.00 0.00 92 1013.8
20260906080032 75 286 0.0 1.0 0.00 0.00 0.00 92 1012.8
20260906074534 74 0 0.0 0.0 0.00 0.00 0.00 91 1013.8
20260906073036 74 0 0.0 0.0 0.00 0.00 0.00 91 1013.7
20260906071535 74 0 0.0 0.0 0.00 0.00 0.00 90 1013.8
20260906070039 74 0 0.0 0.0 0.00 0.00 0.00 90 1013.9
20260906070029 75 285 0.0 0.0 0.00 0.00 0.00 91 1012.9
20260906064537 75 0 0.0 0.0 0.00 0.00 0.00 90 1014.0
20260906063033 75 0 0.0 0.0 0.00 0.00 0.00 90 1014.1
20260906061539 75 0 0.0 0.0 0.00 0.00 0.00 90 1014.1
20260906060045 76 0 0.0 0.0 0.00 0.00 0.00 90 1014.1
20260906060026 76 285 0.0 0.0 0.00 0.00 0.00 90 1013.1
20260906054535 76 0 0.0 0.0 0.00 0.00 0.00 90 1014.2
20260906053038 76 0 0.0 0.0 0.00 0.00 0.00 89 1014.2
20260906051537 76 0 0.0 0.0 0.00 0.00 0.00 88 1014.3
20260906050035 77 0 0.0 0.0 0.00 0.00 0.00 88 1014.2
20260906050016 77 285 0.0 0.0 0.00 0.00 0.00 88 1013.2
20260906044536 77 0 0.0 0.0 0.00 0.00 0.00 87 1014.2
20260906043036 77 0 0.0 0.0 0.00 0.00 0.00 86 1014.1
20260906041541 78 0 0.0 0.0 0.00 0.00 0.00 85 1014.1
20260906040043 78 0 0.0 0.0 0.00 0.00 0.00 85 1014.0
20260906040026 79 285 0.0 0.0 0.00 0.00 0.00 85 1012.9
20260906034535 79 0 0.0 0.0 0.00 0.00 0.00 84 1013.9
20260906033037 80 0 0.0 0.0 0.00 0.00 0.00 82 1013.7
20260906031534 81 0 0.0 2.0 0.00 0.00 0.00 81 1013.6
20260906030036 82 0 0.0 2.0 0.00 0.00 0.00 78 1013.6
20260906030018 82 288 0.0 2.0 0.00 0.00 0.00 78 1012.3
20260906024536 84 0 0.0 0.0 0.00 0.00 0.00 75 1013.4
20260906023043 85 0 0.0 1.0 0.00 0.00 0.00 71 1013.2
20260906021534 85 0 0.0 1.0 0.00 0.00 0.00 69 1013.1
20260906020038 86 0 0.0 1.0 0.00 0.00 0.00 69 1012.8
20260906020035 86 80 0.0 1.0 0.00 0.00 0.00 69 1011.7
20260906014544 86 0 0.0 0.0 0.00 0.00 0.00 69 1012.6
20260906013036 87 0 0.0 1.0 0.00 0.00 0.00 68 1012.5
20260906011535 87 0 0.0 0.0 0.00 0.00 0.00 65 1012.4
20260906010036 88 0 0.0 1.0 0.00 0.00 0.00 65 1012.2
20260906010024 89 140 0.0 1.0 0.00 0.00 0.00 66 1011.2
20260906004535 89 0 0.0 1.0 0.00 0.00 0.00 64 1012.3
20260906003037 90 0 0.0 0.0 0.00 0.00 0.00 63 1012.3
20260906001533 91 0 0.0 1.0 0.00 0.00 0.00 67 1012.3
20260906000041 93 101 0.0 0.0 0.00 0.00 0.00 64 1011.2
20260906000035 92 0 0.0 2.0 0.00 0.00 0.00 63 1012.3
20260905234537 93 0 0.0 0.0 0.00 0.00 0.00 61 1012.2
20260905233047 95 0 0.0 0.0 0.00 0.00 0.00 62 1012.2
20260905231548 98 0 0.0 3.0 0.00 0.00 0.00 51 1012.1
20260905230039 99 0 0.0 3.0 0.00 0.00 0.00 45 1012.0
20260905230034 99 170 0.0 3.0 0.00 0.00 0.00 46 1011.0
20260905224547 99 0 0.0 3.0 0.00 0.00 0.00 45 1012.1
20260905223034 98 219 1.0 5.0 0.00 0.00 0.00 45 1012.1
20260905221539 99 138 0.0 4.0 0.00 0.00 0.00 45 1012.1
20260905220035 99 0 0.0 5.0 0.00 0.00 0.00 45 1012.3
20260905220030 100 163 1.0 5.0 0.00 0.00 0.00 45 1011.2
20260905214532 98 240 1.0 8.0 0.00 0.00 0.00 45 1012.5
20260905213038 99 0 0.0 5.0 0.00 0.00 0.00 46 1012.8
20260905211536 100 77 0.0 3.0 0.00 0.00 0.00 47 1013.0
20260905210034 98 76 1.0 4.0 0.00 0.00 0.00 48 1013.2
20260905210018 99 76 1.0 4.0 0.00 0.00 0.00 49 1012.0
20260905204535 99 58 0.0 7.0 0.00 0.00 0.00 48 1013.3
20260905203038 98 64 1.0 6.0 0.00 0.00 0.00 49 1013.4
20260905201534 97 0 0.0 3.0 0.00 0.00 0.00 50 1013.7
20260905200036 98 0 0.0 5.0 0.00 0.00 0.00 43 1013.9
20260905200032 98 348 0.0 3.0 0.00 0.00 0.00 44 1012.8
20260905194537 98 257 2.0 8.0 0.00 0.00 0.00 43 1014.0
20260905193037 97 0 0.0 8.0 0.00 0.00 0.00 46 1014.0
20260905191536 98 281 2.0 6.0 0.00 0.00 0.00 47 1014.1
20260905190050 96 321 1.0 9.0 0.00 0.00 0.00 46 1014.3
20260905190031 97 322 1.0 8.0 0.00 0.00 0.00 46 1013.0
20260905184546 96 302 2.0 6.0 0.00 0.00 0.00 49 1014.4
20260905183039 97 0 2.0 5.0 0.00 0.00 0.00 45 1014.6
20260905181535 96 0 0.0 7.0 0.00 0.00 0.00 49 1014.7
20260905180035 95 0 1.0 6.0 0.00 0.00 0.00 49 1015.1
20260905180018 95 105 1.0 5.0 0.00 0.00 0.00 49 1013.9
20260905174544 94 301 0.0 3.0 0.00 0.00 0.00 54 1015.2
20260905173038 95 0 0.0 4.0 0.00 0.00 0.00 53 1015.3
20260905171533 94 253 1.0 4.0 0.00 0.00 0.00 53 1015.5
20260905170035 94 0 1.0 3.0 0.00 0.00 0.00 57 1015.7
20260905170015 94 285 1.0 3.0 0.00 0.00 0.00 57 1014.5
20260905164536 93 0 0.0 3.0 0.00 0.00 0.00 57 1015.7
20260905163034 91 0 0.0 3.0 0.00 0.00 0.00 59 1015.7
20260905161534 90 0 1.0 7.0 0.00 0.00 0.00 60 1015.7
20260905160035 89 0 0.0 4.0 0.00 0.00 0.00 64 1015.6
20260905160015 90 292 0.0 3.0 0.00 0.00 0.00 65 1014.4
20260905154536 88 296 1.0 4.0 0.00 0.00 0.00 65 1015.4
20260905153037 86 174 1.0 4.0 0.00 0.00 0.00 71 1015.3
20260905151538 85 224 1.0 4.0 0.00 0.00 0.00 73 1015.2
20260905150045 83 227 0.0 3.0 0.00 0.00 0.00 76 1014.0
20260905150035 83 0 0.0 3.0 0.00 0.00 0.00 76 1015.1
20260905144540 81 0 0.0 3.0 0.00 0.00 0.00 77 1015.0
20260905143035 80 277 1.0 3.0 0.00 0.00 0.00 78 1014.9
20260905141542 78 0 0.0 3.0 0.00 0.00 0.00 83 1015.0
20260905140034 76 0 0.0 2.0 0.00 0.00 0.00 91 1015.0
20260905140025 77 276 0.0 2.0 0.00 0.00 0.00 91 1013.9
20260905134538 74 276 0.0 2.0 0.00 0.00 0.00 95 1014.9
20260905133034 73 0 0.0 0.0 0.00 0.00 0.00 95 1014.6
20260905131549 73 0 0.0 0.0 0.00 0.00 0.00 96 1014.5
20260905130057 73 277 0.0 1.0 0.00 0.00 0.00 96 1013.3
20260905130038 72 0 0.0 1.0 0.00 0.00 0.00 96 1014.3
20260905124546 72 0 0.0 1.0 0.00 0.00 0.00 95 1014.2
20260905123045 71 0 0.0 1.0 0.00 0.00 0.00 95 1014.1
20260905121535 71 0 0.0 1.0 0.00 0.00 0.00 95 1014.0
20260905120035 71 0 0.0 0.0 0.00 0.00 0.00 95 1013.8
20260905120026 71 276 0.0 0.0 0.00 0.00 0.00 96 1012.8
20260905114541 71 0 0.0 1.0 0.00 0.00 0.00 95 1013.7
20260905113041 71 0 0.0 2.0 0.00 0.00 0.00 95 1013.6
20260905111546 71 0 0.0 0.0 0.00 0.00 0.00 95 1013.5
20260905110034 71 0 0.0 0.0 0.00 0.00 0.00 94 1013.4
20260905110019 71 276 0.0 0.0 0.00 0.00 0.00 95 1012.4
20260905104533 71 0 0.0 0.0 0.00 0.00 0.00 95 1013.3
20260905103036 71 0 0.0 0.0 0.00 0.00 0.00 95 1013.3
20260905101541 70 0 0.0 0.0 0.00 0.00 0.00 94 1013.2
20260905100034 71 0 0.0 0.0 0.00 0.00 0.00 94 1013.1
20260905100031 71 276 0.0 0.0 0.00 0.00 0.00 94 1012.1
20260905094536 71 0 0.0 0.0 0.00 0.00 0.00 94 1013.2